Regional Weather Roundup
Issued by NWS

Home | Current Version | Previous Version | Graphics & Text | Print | Product List | Glossary Off
Versions: 1 2 3 4 5 6 7 8 9 10 11 12 13 14 15 16 17 18 19 20 21 22 23 24 25 26 27 28 29 30 31 32 33 34 35 36 37 38 39 40 41 42 43 44 45 46 47 48 49 50

000
ASUS43 KMKX 222311
RWRWI

WISCONSIN REGIONAL WEATHER ROUNDUP
NATIONAL WEATHER SERVICE MILWAUKEE/SULLIVAN WI
600 PM CDT WED OCT 22 2014

NOTE: "FAIR" INDICATES FEW OR NO CLOUDS BELOW 12,000 FEET WITH NO
SIGNIFICANT WEATHER AND/OR OBSTRUCTIONS TO VISIBILITY.

WIZ001-002-006>008-014>016-023>028-230000-
NORTHWEST WISCONSIN

CITY           SKY/WX    TMP DP  RH WIND       PRES   REMARKS
SUPERIOR ARPT  MOCLDY    57  38  48 S8        30.05S
ASHLAND        MOCLDY    57  30  35 S8        30.09F
HAYWARD        CLEAR     54  31  41 S12G18    30.09F
SIREN          PTCLDY    55  35  47 S10G16    30.06F
CUMBERLAND     CLOUDY    52  32  46 SE9       30.09F
RICE LAKE      PTCLDY    55  32  42 SE12      30.12F
CHETEK         CLOUDY    55  34  45 SE8       30.11F
LADYSMITH      PTCLDY    54  33  44 SE9       30.15F
EAU CLAIRE     PTCLDY    56  33  42 SE12      30.13F
MENOMONIE      CLOUDY    56  34  42 SE13      30.11F
NEW RICHMOND   PTCLDY    54  38  54 SE13      30.07F
OSCEOLA        PTCLDY    55  39  54 SE12G17   30.09F
$$

WIZ003>005-009-010-017-018-230000-
NORTH CENTRAL WISCONSIN

CITY           SKY/WX    TMP DP  RH WIND       PRES   REMARKS
MANITOWISH WTR CLEAR     49  28  43 S8G17     30.15F
ARBOR VITAE    CLEAR     52  27  37 S9        30.17F
WOODRUFF       CLEAR     52  27  37 S9        30.17F
RHINELANDER    CLEAR     49  28  44 S7        30.20F
EAGLE RIVER    CLEAR     49  24  36 S6        30.18F
LAND O LAKES   CLEAR     48  29  47 S3        30.18F
PHILLIPS       PTCLDY    51  31  45 S12       30.15F
TOMAHAWK       CLEAR     48  31  51 SE3       30.19F
MEDFORD        CLEAR     49  32  52 SE7       30.18F
MERRILL        CLEAR     50  32  50 S5        30.20F
$$

WIZ029-030-035-036-043>047-230000-
CENTRAL WISCONSIN

CITY           SKY/WX    TMP DP  RH WIND       PRES   REMARKS
WAUSAU         CLEAR     50  34  54 SE9       30.20F
MOSINEE        CLEAR     50  36  57 SE6       30.23F
MARSHFIELD     CLEAR     52  34  50 SE8       30.19F
STEVENS POINT  CLEAR     50  33  53 S6        30.22F
WAUPACA        CLEAR     52  39  60 E6        30.24F
WAUTOMA        CLOUDY    53  37  54 E6        30.23F
WISC RAPIDS    CLEAR     53  35  50 SE3       30.23F
CAMP DOUGLAS   PTCLDY    54  37  54 SE6       30.20F
$$

WIZ011>013-019>022-031-037>040-048>050-230000-
NORTHEAST WISCONSIN

CITY           SKY/WX    TMP DP  RH WIND       PRES   REMARKS
ANTIGO         CLEAR     44  34  67 SE9       30.22F
SHAWANO        CLEAR     50  37  61 SE3       30.26S
OCONTO         PTCLDY    44  39  84 SE7       30.27F
STURGEON BAY   CLEAR     43  34  70 SE6       30.29F
GREEN BAY      CLEAR     47  40  76 E8        30.26F
MANITOWOC      CLEAR     45  40  82 S6        30.29F
APPLETON       PTCLDY    52  37  58 VRB6      30.25F
CLINTONVILLE   CLEAR     48  36  61 SE5       30.25F
OSHKOSH        CLEAR     50  41  71 E3        30.24F
$$

WIZ032>034-041-042-053>061-230000-
SOUTHWEST WISCONSIN

CITY           SKY/WX    TMP DP  RH WIND       PRES   REMARKS
LA CROSSE      MOCLDY    57  37  47 SE9       30.16F
SPARTA         CLEAR     54  33  44 SE5       30.19F
VIROQUA        CLEAR     53  35  50 SE7       30.18F
BOSCOBEL       CLEAR     58  37  45 CALM      30.20F
PRAIRIE DU CHI CLEAR     55  37  50 E6        30.18S
PLATTEVILLE    CLEAR     54  37  52 S5        30.22S
$$

WIZ056-057-062-063-064-067-068-230000-
SOUTH CENTRAL WISCONSIN

CITY           SKY/WX    TMP DP  RH WIND       PRES   REMARKS
REEDSBURG      CLEAR     54  37  53 SE5       30.21S
BARABOO/DELLS  CLEAR     52  36  54 SE5       30.22S
LONE ROCK      CLEAR     58  37  45 SE7       30.21F
MINERAL POINT  CLEAR     52  34  50 SE6       30.21S
MADISON        PTCLDY    55  35  47 S7        30.23F
MIDDLETON      CLEAR     55  33  42 SE7       30.22F
WATERTOWN      CLEAR     52  37  57 SE3       30.23F
MONROE         CLEAR     52  36  54 SE7       30.22F
JANESVILLE     CLEAR     55  36  47 SE7       30.23F
$$

WIZ051-052-058>065-066-070>072-230000-
SOUTHEAST WISCONSIN

CITY           SKY/WX    TMP DP  RH WIND       PRES   REMARKS
MILWAUKEE      PTCLDY    46  38  73 SE9       30.29S
WAUKESHA       CLEAR     46  37  71 E7        30.27F
MILWAUKEE/TIMM CLEAR     48  37  66 E6        30.29S
RACINE         CLEAR     46  38  73 SE6       30.30F
BURLINGTON     CLEAR     47  38  73 E8        30.26S
KENOSHA        CLEAR     46  39  76 SE8       30.28F
FOND DU LAC    CLEAR     50  39  66 SE10      30.24F
SHEBOYGAN      CLEAR     45  37  73 SE6       30.28F
WEST BEND      CLEAR     43  36  75 SE3       30.27F
JUNEAU         CLEAR     50  38  63 SE6       30.24F
$$

LSZ147-162-230000-
LAKE SUPERIOR

STATION/POSITION TIME  TEMP    WIND        PRES    WAVE
                       AIR SEA DIR/SP/G            HT/PER
                 (UTC) (F)     (DEG/KT/KT) (MB)    (FT/S)
W MID LAKE BUOY  2250   48 46  100/ 10/ 12 1020.4F   1/ 3
DEVILS ISLAND    2300   49     100/  8/  9 1019.3F
PORT WING        2240   59     160/  3/  6 1018.3F
SAXON HARBOR     2200   62     200/  6/ 14 1019.6F
$$

LMZ867-665-643>646-230000-
LAKE MICHIGAN

STATION/POSITION TIME  TEMP    WIND        PRES    WAVE
                       AIR SEA DIR/SP/G            HT/PER
                 (UTC) (F)     (DEG/KT/KT) (MB)    (FT/S)
CHAMBERS ISLAND  2200   46     130/  6/  9 1025.7F
N MID LAKE BUOY  2250   43 51  140/  6/  8 1026.4F   0
NORTHPORT PIER   2200   44     130/  9/ 11 1026.1F
SISTER BAY       2242          150/  6/  8   N/A
KEWAUNEE LAKESHO 2200   45     140/  6/ 10 1025.0F
SHEBOYGAN LAKESH 2300   47 50  150/ 10/ 11 1026.2F
PORT WASHINGTON  2200   49     150/  8/ 11 1026.1F
ATWATER BUOY     2300   49     140/ 10/ 12 1026.1F
MILWAUKEE LAKESH 2200   48     130/ 10/ 11   N/A
S MID LAKE BUOY  2250   47 54   60/  4/  6 1026.3F   1
KENOSHA   LAKESH 2300   48     130/  8/ 10 1025.4S
$$

TC  - TEMPERATURE IN CELSIUS
VSB - VISIBILITY IN STATUTE MILES
WCI - WIND CHILL INDEX
HX  - HEAT INDEX




USA.gov is the U.S. government's official web portal to all federal, state and local government web resources and services.